TimeCST,TemperatureF,Dew PointF,Humidity,Sea Level PressureIn,VisibilityMPH,Wind Direction,Wind SpeedMPH,Gust SpeedMPH,PrecipitationIn,Events,Conditions,WindDirDegrees,DateUTC
12:18 AM,3.2,-11.2,51,30.38,10.0,NNW,5.8,-,N/A,,Clear,340,2014-01-21 06:18:00
12:37 AM,1.4,-13.0,51,30.39,10.0,NNW,5.8,-,N/A,,Clear,340,2014-01-21 06:37:00
12:58 AM,1.4,-13.0,51,30.39,10.0,North,5.8,-,N/A,,Clear,350,2014-01-21 06:58:00
1:18 AM,1.4,-14.8,47,30.40,10.0,NNW,10.4,17.3,N/A,,Clear,340,2014-01-21 07:18:00
1:37 AM,-0.4,-14.8,51,30.40,10.0,NNW,6.9,-,N/A,,Clear,340,2014-01-21 07:37:00
1:58 AM,-0.4,-14.8,51,30.42,10.0,NNW,5.8,-,N/A,,Clear,330,2014-01-21 07:58:00
2:18 AM,-2.2,-14.8,55,30.42,10.0,NW,4.6,-,N/A,,Clear,320,2014-01-21 08:18:00
2:37 AM,-2.2,-14.8,55,30.43,10.0,NW,8.1,-,N/A,,Clear,320,2014-01-21 08:37:00
2:58 AM,-2.2,-14.8,55,30.43,10.0,NW,5.8,-,N/A,,Clear,310,2014-01-21 08:58:00
3:17 AM,-4.0,-14.8,60,30.44,10.0,NNW,6.9,-,N/A,,Clear,330,2014-01-21 09:17:00
3:38 AM,-4.0,-14.8,60,30.44,10.0,NW,4.6,-,N/A,,Clear,310,2014-01-21 09:38:00
3:57 AM,-4.0,-14.8,60,30.45,10.0,NW,6.9,-,N/A,,Clear,310,2014-01-21 09:57:00
4:17 AM,-5.8,-16.6,60,30.46,10.0,NNW,8.1,-,N/A,,Clear,330,2014-01-21 10:17:00
4:37 AM,-5.8,-16.6,60,30.45,10.0,NNW,6.9,-,N/A,,Clear,330,2014-01-21 10:37:00
4:57 AM,-5.8,-16.6,60,30.45,10.0,NNW,6.9,-,N/A,,Clear,330,2014-01-21 10:57:00
5:18 AM,-5.8,-14.8,65,30.45,10.0,NW,3.5,-,N/A,,Clear,320,2014-01-21 11:18:00
5:37 AM,-7.6,-18.4,59,30.44,10.0,NNW,4.6,-,N/A,,Clear,330,2014-01-21 11:37:00
5:57 AM,-5.8,-14.8,65,30.45,10.0,NW,3.5,-,N/A,,Clear,320,2014-01-21 11:57:00
6:18 AM,-7.6,-16.6,65,30.45,10.0,Calm,Calm,-,N/A,,Clear,0,2014-01-21 12:18:00
6:37 AM,-7.6,-16.6,65,30.44,10.0,Calm,Calm,-,N/A,,Clear,0,2014-01-21 12:37:00
6:57 AM,-9.4,-18.4,65,30.44,10.0,Calm,Calm,-,N/A,,Clear,0,2014-01-21 12:57:00
7:17 AM,-9.4,-16.6,71,30.44,10.0,Calm,Calm,-,N/A,,Clear,0,2014-01-21 13:17:00
7:37 AM,-9.4,-18.4,65,30.43,10.0,NW,3.5,-,N/A,,Clear,320,2014-01-21 13:37:00
7:58 AM,-11.2,-18.4,70,30.43,10.0,Calm,Calm,-,N/A,,Clear,0,2014-01-21 13:58:00
8:17 AM,-9.4,-18.4,65,30.42,10.0,Calm,Calm,-,N/A,,Clear,0,2014-01-21 14:17:00
8:37 AM,-9.4,-16.6,71,30.43,10.0,Calm,Calm,-,N/A,,Clear,0,2014-01-21 14:37:00
8:58 AM,-7.6,-16.6,65,30.43,10.0,Calm,Calm,-,N/A,,Clear,0,2014-01-21 14:58:00
9:17 AM,-7.6,-16.6,65,30.43,10.0,NW,5.8,-,N/A,,Clear,320,2014-01-21 15:17:00
9:37 AM,-7.6,-16.6,65,30.42,10.0,NW,3.5,-,N/A,,Clear,320,2014-01-21 15:37:00
9:58 AM,-5.8,-16.6,60,30.42,10.0,NW,4.6,-,N/A,,Clear,320,2014-01-21 15:58:00
10:17 AM,-5.8,-16.6,60,30.42,10.0,NNW,4.6,-,N/A,,Clear,330,2014-01-21 16:17:00
10:38 AM,-2.2,-14.8,55,30.42,10.0,NNW,4.6,-,N/A,,Clear,330,2014-01-21 16:38:00
10:58 AM,-0.4,-14.8,51,30.41,10.0,NNW,3.5,-,N/A,,Clear,330,2014-01-21 16:58:00
11:17 AM,-0.4,-14.8,51,30.41,10.0,NW,5.8,-,N/A,,Clear,320,2014-01-21 17:17:00
11:38 AM,-0.4,-13.0,55,30.40,10.0,NW,8.1,-,N/A,,Clear,320,2014-01-21 17:38:00
11:58 AM,-0.4,-13.0,55,30.39,10.0,NW,6.9,-,N/A,,Clear,320,2014-01-21 17:58:00
12:17 PM,-0.4,-13.0,55,30.38,10.0,NW,6.9,-,N/A,,Clear,320,2014-01-21 18:17:00
12:38 PM,1.4,-13.0,51,30.36,10.0,NW,4.6,-,N/A,,Clear,320,2014-01-21 18:38:00
12:58 PM,3.2,-13.0,47,30.34,10.0,Calm,Calm,-,N/A,,Clear,0,2014-01-21 18:58:00
1:17 PM,1.4,-13.0,51,30.32,10.0,Calm,Calm,-,N/A,,Clear,0,2014-01-21 19:17:00
1:38 PM,3.2,-13.0,47,30.30,10.0,Calm,Calm,-,N/A,,Clear,0,2014-01-21 19:38:00
1:58 PM,3.2,-13.0,47,30.29,10.0,Calm,Calm,-,N/A,,Clear,0,2014-01-21 19:58:00
2:17 PM,3.2,-11.2,51,30.28,10.0,Calm,Calm,-,N/A,,Clear,0,2014-01-21 20:17:00
2:38 PM,5.0,-11.2,47,30.27,10.0,Calm,Calm,-,N/A,,Clear,0,2014-01-21 20:38:00
2:58 PM,3.2,-11.2,51,30.27,10.0,West,3.5,-,N/A,,Clear,270,2014-01-21 20:58:00
3:17 PM,3.2,-11.2,51,30.27,10.0,WSW,3.5,-,N/A,,Clear,250,2014-01-21 21:17:00
3:38 PM,3.2,-11.2,51,30.26,10.0,Calm,Calm,-,N/A,,Clear,0,2014-01-21 21:38:00
3:57 PM,3.2,-11.2,51,30.26,10.0,Calm,Calm,-,N/A,,Clear,0,2014-01-21 21:57:00
4:17 PM,3.2,-11.2,51,30.25,10.0,Calm,Calm,-,N/A,,Clear,0,2014-01-21 22:17:00
4:38 PM,3.2,-11.2,51,30.24,10.0,Calm,Calm,-,N/A,,Clear,0,2014-01-21 22:38:00
4:57 PM,3.2,-11.2,51,30.22,10.0,Calm,Calm,-,N/A,,Clear,0,2014-01-21 22:57:00
5:17 PM,3.2,-9.4,56,30.21,10.0,Calm,Calm,-,N/A,,Clear,0,2014-01-21 23:17:00
5:38 PM,3.2,-9.4,56,30.20,10.0,Calm,Calm,-,N/A,,Clear,0,2014-01-21 23:38:00
5:57 PM,3.2,-9.4,56,30.20,10.0,Calm,Calm,-,N/A,,Scattered Clouds,0,2014-01-21 23:57:00
6:17 PM,3.2,-9.4,56,30.20,10.0,Calm,Calm,-,N/A,,Clear,0,2014-01-22 00:17:00
6:38 PM,1.4,-9.4,61,30.20,10.0,Calm,Calm,-,N/A,,Clear,0,2014-01-22 00:38:00
6:57 PM,1.4,-9.4,61,30.20,10.0,Calm,Calm,-,N/A,,Scattered Clouds,0,2014-01-22 00:57:00
7:17 PM,3.2,-9.4,56,30.20,10.0,Calm,Calm,-,N/A,,Mostly Cloudy,0,2014-01-22 01:17:00
7:38 PM,1.4,-7.6,66,30.21,10.0,Calm,Calm,-,N/A,,Overcast,0,2014-01-22 01:38:00
7:58 PM,3.2,-7.6,61,30.19,10.0,Calm,Calm,-,N/A,,Overcast,0,2014-01-22 01:58:00
8:17 PM,3.2,-7.6,61,30.18,10.0,SSE,5.8,-,N/A,,Overcast,150,2014-01-22 02:17:00
8:38 PM,3.2,-7.6,61,30.17,10.0,SSE,6.9,-,N/A,,Overcast,150,2014-01-22 02:38:00
8:57 PM,3.2,-7.6,61,30.16,10.0,SSE,3.5,-,N/A,,Overcast,150,2014-01-22 02:57:00
9:18 PM,3.2,-7.6,61,30.15,10.0,South,3.5,-,N/A,,Overcast,180,2014-01-22 03:18:00
9:37 PM,3.2,-5.8,66,30.13,5.0,South,5.8,-,N/A,Snow,Light Snow,170,2014-01-22 03:37:00
9:57 PM,3.2,-4.0,72,30.12,5.0,SSE,4.6,-,N/A,Snow,Light Snow,160,2014-01-22 03:57:00
10:18 PM,3.2,-4.0,72,30.11,10.0,SSE,6.9,-,N/A,,Overcast,150,2014-01-22 04:18:00
10:37 PM,5.0,-4.0,66,30.09,5.0,SSE,4.6,-,N/A,Snow,Light Snow,150,2014-01-22 04:37:00
10:57 PM,5.0,-2.2,72,30.08,4.0,SE,5.8,-,N/A,Snow,Light Snow,140,2014-01-22 04:57:00
11:18 PM,5.0,-2.2,72,30.08,7.0,SSE,3.5,-,N/A,Snow,Light Snow,150,2014-01-22 05:18:00
11:37 PM,5.0,-0.4,78,30.07,10.0,SSE,3.5,-,N/A,,Overcast,160,2014-01-22 05:37:00
11:57 PM,5.0,-2.2,72,30.07,10.0,Calm,Calm,-,N/A,,Mostly Cloudy,0,2014-01-22 05:57:00